Temp
66 61 57 60 61 63 62 59 60 66 71 66 61 61 65 68 69 69 70 71 70 71 76 74 75 75 73 72 71 71 71 70 69 68 69 70 69 70 70 73 75 74 75 76
61 57 67 68 65 64 63 60 60 65 70 63 62 61 65 66 65 69 70 69 70 69 71 72 72 73 73 71 71 70 71 70 69 69 69 69 70 71 73 72 74 75 76 75
59 67 73 69 64 63 61 59 60 62 66 64 61 57 60 66 68 70 70 73 72 70 69 70 71 72 73 71 71 71 71 70 70 70 70 69 70 69 70 71 72 75 77 76
62 70 71 64 64 64 56 69 70 65 59 52 64 47 56 60 63 67 70 69 70 70 72 71 71 70 72 72 73 72 71 71 71 69 68 69 68 67 68 70 71 73 75 76
64 65 64 62 66 69 64 73 70 67 57 55 55 51 56 58 58 62 67 70 72 72 72 71 72 73 74 75 74 73 71 70 71 69 68 68 69 68 70 69 71 70 71 74
67 72 69 68 71 72 73 67 62 59 52 47 55 53 53 54 59 62 67 70 72 72 74 74 74 75 74 75 75 74 71 71 70 69 69 69 70 70 68 68 70 70 70 73
62 66 68 73 64 65 64 54 47 44 43 44 50 52 53 64 66 67 66 70 72 74 73 73 72 72 70 73 74 74 71 71 70 69 69 69 70 71 70 70 70 69 70 71
53 55 66 72 69 63 58 56 48 43 45 46 52 50 59 67 69 70 72 72 73 72 73 73 73 73 73 73 72 73 71 71 70 70 70 69 70 71 71 71 71 70 70 71
52 57 70 73 72 72 60 56 57 50 43 45 49 57 66 68 69 68 69 71 71 72 74 73 75 75 74 73 72 73 72 72 71 72 70 70 71 71 71 71 71 71 71 71
60 55 63 70 73 68 67 66 54 49 43 41 48 51 53 62 66 69 67 67 69 72 73 74 73 73 74 74 70 71 72 71 72 73 72 73 72 72 71 71 70 71 71 71
59 57 63 66 63 63 61 56 53 53 48 43 41 48 61 64 67 69 71 70 70 72 72 74 75 74 74 74 73 70 70 72 71 74 73 73 71 71 70 71 71 71 71 71
66 57 54 62 66 69 65 59 55 51 48 45 46 50 66 67 69 71 72 74 72 74 75 74 75 74 71 71 71 69 70 71 74 74 71 70 74 71 71 72 71 71 70 70
65 55 50 56 60 62 61 60 55 51 47 45 46 50 67 65 68 71 70 71 73 72 71 71 70 69 70 69 69 69 71 72 73 70 71 70 69 69 73 73 72 71 71 70
69 54 55 52 57 59 58 62 59 55 49 48 49 53 61 65 65 67 68 71 72 71 72 69 69 69 68 71 69 69 70 69 70 70 72 72 71 70 74 75 72 72 72 71
64 59 53 58 65 65 64 65 64 58 56 55 57 57 62 65 66 69 72 72 70 70 70 70 69 68 69 68 68 68 69 68 69 70 70 71 71 72 72 73 72 72 71 73
61 55 55 56 64 64 64 66 63 62 62 59 57 58 63 64 65 66 68 69 69 70 71 71 71 71 70 70 68 68 68 68 68 69 70 71 70 72 71 73 71 69 69 70
57 55 52 49 58 58 54 63 64 64 64 63 56 63 64 62 68 67 67 69 70 71 71 71 70 68 68 68 70 69 69 69 67 67 68 69 70 70 71 70 69 69 68 68
57 52 48 48 49 44 60 63 69 67 69 67 64 65 66 65 69 68 66 70 69 69 69 68 67 67 67 67 68 69 68 68 68 68 68 68 68 68 69 70 70 68 69 69
57 54 50 47 43 52 61 66 66 64 64 68 68 66 66 67 68 63 66 68 66 66 65 65 66 65 66 66 66 66 65 65 66 65 65 66 66 67 67 68 69 69 66 67
54 54 54 44 44 45 58 66 69 65 55 66 67 66 65 66 58 61 63 66 65 65 64 64 65 64 64 63 64 63 61 64 63 64 64 66 66 66 66 68 69 69 68 67
48 52 51 46 44 51 61 66 66 54 57 67 68 65 63 63 63 63 64 63 63 63 64 63 63 62 62 61 61 61 62 61 60 61 64 64 67 67 67 66 67 69 68 68
49 46 46 47 44 46 65 64 60 59 61 64 65 65 62 61 61 62 63 62 62 62 62 62 61 60 60 60 61 62 58 59 60 61 62 63 64 64 64 66 65 67 68 68
47 49 46 50 49 56 60 59 61 59 61 64 65 63 64 62 61 62 61 62 62 62 61 61 60 59 59 59 61 61 59 59 60 59 58 58 60 61 62 63 62 62 62 62
51 51 48 50 54 57 61 64 62 64 62 66 65 66 65 62 62 62 62 61 60 61 60 60 60 59 60 59 59 61 58 58 60 58 57 57 55 55 55 59 60 61 60 60
52 51 49 49 54 57 61 63 64 67 68 67 67 66 64 63 61 61 60 60 60 61 61 60 59 61 61 59 58 59 58 57 57 56 56 57 57 55 53 50 49 56 55 58
52 51 48 48 54 54 57 62 64 66 66 66 66 64 64 63 61 60 59 59 59 60 60 62 61 61 60 61 59 59 59 58 57 55 55 57 58 57 57 57 55 49 47 46
MSLP
1008.39 1009.12 1009.53 1010.11 1010.65 1010.77 1011.11 1011.32 1011.01 1010.46 1010.17 1010.87 1010.93 1011.02 1010.47 1010.28 1010.42 1010.11 1009.88 1010.10 1010.69 1010.91 1011.36 1012.00 1012.41 1012.82 1013.28 1013.68 1014.10 1014.45 1014.96 1015.13 1015.50 1015.94 1016.30 1016.39 1016.59 1016.35 1016.06 1015.74 1015.42 1015.37 1015.61 1015.64
1009.00 1008.94 1008.50 1009.47 1010.08 1010.51 1010.84 1010.70 1010.31 1010.01 1009.89 1010.85 1011.10 1010.85 1010.34 1010.13 1010.02 1009.97 1009.73 1009.97 1010.37 1010.89 1011.42 1011.97 1012.25 1012.64 1013.01 1013.42 1013.89 1014.34 1014.57 1014.94 1015.25 1015.57 1015.95 1016.18 1016.35 1016.15 1015.74 1015.42 1015.29 1015.34 1015.44 1015.58
1008.81 1007.74 1007.97 1008.83 1009.44 1010.09 1010.44 1010.00 1009.76 1009.39 1009.77 1011.03 1011.10 1010.71 1010.00 1009.62 1009.56 1009.59 1009.58 1009.63 1009.94 1010.16 1011.11 1011.73 1012.09 1012.42 1012.77 1013.23 1013.51 1013.97 1014.26 1014.61 1015.02 1015.32 1015.71 1016.11 1016.19 1016.29 1016.05 1015.64 1015.42 1015.26 1015.25 1015.40
1008.45 1007.56 1007.90 1008.46 1008.69 1009.11 1009.28 1008.68 1009.19 1009.63 1010.40 1011.12 1010.97 1011.05 1009.78 1009.38 1009.31 1009.14 1009.22 1009.49 1009.47 1009.94 1010.60 1011.25 1011.66 1012.11 1012.33 1012.63 1013.20 1013.55 1013.93 1014.21 1014.62 1015.11 1015.51 1015.87 1016.10 1016.33 1015.94 1015.67 1015.63 1015.48 1015.25 1015.34
1007.43 1007.14 1007.58 1007.71 1007.30 1008.22 1007.82 1008.09 1008.74 1009.49 1010.79 1011.51 1011.47 1011.86 1009.54 1009.27 1009.20 1008.55 1008.32 1008.55 1009.03 1009.18 1009.72 1010.43 1010.93 1011.33 1011.68 1012.20 1012.68 1013.19 1013.67 1013.96 1014.29 1014.80 1015.15 1015.51 1015.73 1015.88 1015.73 1015.80 1015.77 1015.68 1015.53 1015.36
1006.91 1006.38 1006.68 1006.27 1006.53 1006.83 1007.31 1008.46 1009.47 1010.63 1011.72 1012.14 1010.80 1011.52 1009.07 1008.83 1008.02 1007.75 1007.64 1007.83 1008.43 1008.83 1009.20 1009.83 1010.47 1011.16 1011.56 1012.05 1012.51 1012.97 1013.38 1013.64 1013.94 1014.45 1014.81 1015.11 1015.29 1015.33 1015.69 1015.81 1015.81 1015.67 1015.51 1015.17
1006.71 1005.99 1005.49 1005.48 1006.23 1006.83 1007.57 1009.08 1010.19 1011.57 1012.44 1012.06 1011.11 1010.97 1008.33 1007.28 1006.98 1006.57 1006.91 1007.28 1007.88 1008.42 1008.83 1009.38 1010.14 1010.71 1011.32 1011.64 1012.10 1012.66 1013.00 1013.37 1013.62 1013.90 1014.36 1014.57 1014.66 1014.83 1015.14 1015.33 1015.48 1015.58 1015.52 1015.25
1006.95 1005.88 1004.75 1004.33 1004.88 1005.77 1007.10 1008.23 1009.59 1010.81 1011.99 1011.58 1010.99 1009.89 1007.29 1006.27 1006.03 1006.31 1006.32 1006.93 1007.58 1008.06 1008.44 1008.89 1009.18 1009.98 1010.66 1011.10 1011.54 1011.93 1012.53 1012.83 1013.29 1013.64 1013.92 1014.27 1014.36 1014.49 1014.62 1014.76 1014.99 1015.16 1015.20 1015.01
1006.42 1005.50 1003.81 1003.60 1003.71 1004.25 1006.42 1007.52 1007.91 1009.59 1011.12 1011.41 1010.56 1008.77 1006.71 1005.96 1006.02 1006.34 1006.42 1006.87 1007.31 1007.66 1007.72 1008.21 1008.64 1009.22 1009.91 1010.52 1010.94 1011.33 1011.95 1012.38 1012.88 1013.03 1013.20 1013.60 1013.91 1014.14 1014.35 1014.57 1014.74 1014.79 1014.88 1014.84
1005.31 1005.27 1003.85 1003.16 1003.13 1004.21 1004.83 1006.14 1008.00 1009.68 1010.94 1011.29 1010.39 1009.18 1007.20 1006.18 1005.57 1005.73 1006.28 1006.58 1007.01 1007.52 1007.78 1007.99 1008.44 1008.80 1009.30 1009.71 1010.32 1010.99 1011.47 1011.63 1011.89 1012.31 1012.75 1013.08 1013.46 1013.69 1013.86 1014.22 1014.52 1014.66 1014.68 1014.66
1005.22 1005.60 1004.29 1003.78 1003.63 1004.20 1005.15 1006.04 1007.68 1009.11 1010.18 1010.76 1010.37 1009.04 1006.27 1005.90 1005.67 1005.56 1005.47 1006.32 1006.53 1006.90 1007.32 1007.49 1007.73 1008.23 1008.62 1009.07 1009.85 1010.35 1010.90 1011.10 1011.49 1011.79 1012.08 1012.46 1012.82 1013.19 1013.56 1013.89 1014.03 1014.22 1014.35 1014.46
1004.19 1005.09 1005.43 1004.45 1003.78 1003.66 1004.48 1005.64 1006.91 1008.90 1010.22 1010.41 1009.68 1007.76 1005.54 1005.42 1005.44 1005.45 1005.43 1005.42 1005.90 1006.24 1006.34 1006.90 1007.30 1007.82 1008.34 1008.78 1009.33 1009.82 1010.25 1010.65 1010.79 1011.09 1011.64 1011.91 1012.12 1012.58 1012.95 1013.18 1013.49 1013.86 1014.05 1014.17
1003.74 1004.83 1005.27 1005.03 1004.44 1004.11 1004.43 1005.11 1006.05 1007.55 1008.79 1009.52 1009.30 1007.27 1005.17 1004.99 1005.22 1005.09 1005.26 1005.25 1005.38 1005.73 1005.95 1006.21 1006.84 1007.55 1008.08 1008.54 1008.97 1009.29 1009.55 1009.84 1010.37 1010.61 1011.13 1011.44 1011.84 1012.11 1012.24 1012.46 1012.85 1013.13 1013.60 1013.80
1002.47 1004.17 1004.76 1004.67 1004.30 1004.01 1004.29 1004.91 1005.60 1006.38 1007.99 1008.46 1007.91 1006.72 1005.68 1005.21 1005.06 1005.11 1005.06 1004.98 1004.97 1005.15 1005.60 1006.02 1006.78 1007.35 1007.71 1008.04 1008.40 1008.78 1009.09 1009.41 1009.84 1010.21 1010.66 1011.03 1011.13 1011.25 1011.53 1011.72 1012.19 1012.35 1012.76 1013.23
1003.10 1004.34 1004.63 1004.14 1003.55 1003.56 1003.55 1004.01 1004.64 1005.44 1005.97 1006.43 1006.12 1006.27 1005.39 1004.83 1004.66 1004.49 1004.27 1004.54 1005.23 1005.60 1005.70 1006.01 1006.50 1006.93 1007.28 1007.67 1008.03 1008.49 1008.91 1009.17 1009.38 1009.82 1010.20 1010.29 1010.23 1010.53 1011.03 1011.29 1011.34 1011.57 1012.03 1012.51
1004.28 1004.85 1004.61 1004.86 1003.97 1003.42 1003.27 1003.35 1003.76 1004.45 1004.93 1005.29 1005.20 1005.32 1004.46 1004.72 1004.88 1004.87 1004.88 1005.08 1005.50 1005.86 1006.12 1006.24 1006.51 1006.75 1007.04 1007.34 1007.66 1008.16 1008.40 1008.64 1009.04 1009.56 1009.63 1009.55 1009.84 1009.98 1010.27 1010.48 1010.96 1011.54 1011.95 1012.35
1005.42 1005.42 1006.00 1005.78 1004.84 1004.21 1003.86 1002.98 1002.98 1003.25 1003.50 1003.94 1004.71 1004.22 1004.20 1004.61 1004.57 1004.63 1004.99 1005.08 1005.25 1005.44 1005.79 1006.11 1006.60 1007.01 1007.41 1007.67 1007.85 1008.12 1008.15 1008.34 1008.62 1008.96 1009.03 1009.23 1009.48 1009.47 1009.65 1010.02 1010.47 1011.12 1011.64 1012.71
1005.67 1006.15 1006.58 1006.63 1005.71 1004.88 1003.22 1002.31 1002.28 1002.47 1002.43 1002.69 1002.96 1003.18 1003.25 1003.38 1003.56 1004.11 1004.56 1004.71 1005.14 1005.59 1005.92 1006.34 1006.67 1007.02 1007.47 1007.71 1008.07 1008.25 1008.62 1008.68 1008.71 1008.76 1008.82 1008.99 1009.22 1009.14 1009.30 1009.57 1009.80 1010.13 1010.46 1010.55
1005.82 1006.43 1007.31 1007.62 1006.80 1005.36 1003.31 1002.42 1002.24 1002.33 1002.34 1001.99 1002.21 1002.81 1003.35 1003.89 1004.26 1004.83 1004.79 1004.95 1005.20 1005.47 1005.93 1006.49 1006.99 1007.48 1007.83 1008.12 1008.32 1008.37 1008.90 1009.10 1009.22 1009.08 1009.12 1009.22 1009.07 1009.05 1009.05 1009.14 1009.40 1009.32 1009.69 1010.21
1006.30 1006.59 1007.24 1008.31 1007.53 1006.03 1003.97 1003.06 1002.37 1002.43 1002.47 1002.15 1002.48 1002.82 1003.58 1004.18 1005.31 1004.75 1004.94 1005.22 1005.66 1006.20 1006.57 1006.98 1007.53 1008.00 1008.34 1008.69 1008.66 1008.94 1009.35 1009.51 1009.61 1009.58 1009.46 1009.34 1009.04 1008.86 1008.76 1008.66 1008.69 1009.02 1009.43 1009.79
1007.30 1007.61 1007.96 1008.05 1007.24 1005.74 1004.16 1003.44 1002.92 1003.30 1003.43 1002.11 1002.62 1003.26 1003.90 1004.45 1004.79 1004.90 1005.23 1005.74 1006.20 1006.75 1007.20 1007.66 1008.24 1008.71 1009.05 1009.29 1009.41 1009.78 1010.02 1010.17 1010.13 1009.94 1009.70 1009.54 1009.17 1008.80 1008.82 1008.52 1008.42 1008.41 1008.76 1009.23
1007.77 1008.28 1008.39 1008.13 1007.37 1005.83 1004.05 1003.81 1003.72 1003.74 1002.95 1002.61 1002.83 1003.47 1004.25 1004.61 1005.17 1005.63 1005.98 1006.53 1007.04 1007.53 1007.94 1008.32 1008.78 1009.35 1009.74 1009.80 1009.75 1010.05 1010.27 1010.31 1010.22 1009.99 1009.76 1009.58 1009.32 1009.06 1009.05 1008.73 1008.50 1008.36 1008.57 1008.82
1008.49 1008.25 1008.39 1007.95 1006.89 1005.77 1004.76 1003.93 1003.67 1003.41 1003.42 1003.17 1003.20 1003.91 1004.35 1005.16 1005.79 1006.15 1006.48 1006.91 1007.43 1008.02 1008.57 1009.01 1009.45 1009.93 1010.28 1010.41 1010.27 1010.30 1010.50 1010.59 1010.55 1010.40 1010.14 1009.91 1009.70 1009.54 1009.26 1009.09 1009.03 1008.97 1009.01 1009.18
1008.58 1008.47 1008.46 1007.76 1006.56 1005.76 1005.33 1004.81 1004.05 1002.68 1003.03 1003.55 1003.56 1004.06 1004.91 1005.48 1006.11 1006.62 1006.89 1007.51 1008.05 1008.55 1009.12 1009.40 1009.74 1010.04 1010.26 1010.27 1010.52 1010.63 1010.67 1010.80 1010.82 1010.70 1010.54 1010.38 1010.33 1010.23 1009.99 1009.72 1009.81 1009.75 1009.69 1009.77
1008.94 1008.55 1008.34 1007.90 1006.72 1005.98 1005.31 1005.05 1004.35 1003.07 1002.65 1003.92 1004.38 1004.49 1005.23 1005.69 1006.64 1007.10 1007.44 1007.87 1008.34 1008.69 1009.13 1009.49 1009.85 1009.94 1009.99 1010.22 1010.32 1010.61 1010.79 1010.90 1011.04 1011.26 1010.98 1010.69 1010.84 1010.90 1010.98 1010.97 1011.00 1010.63 1010.51 1010.26
1008.62 1008.11 1008.11 1007.60 1006.80 1006.59 1005.65 1005.12 1004.66 1003.48 1003.45 1003.93 1004.51 1005.12 1005.58 1005.83 1006.96 1007.50 1007.84 1008.04 1008.42 1008.77 1009.19 1009.47 1009.82 1010.32 1010.33 1010.55 1010.59 1010.61 1010.81 1011.02 1011.00 1011.47 1011.42 1011.14 1011.21 1011.35 1011.34 1011.36 1011.50 1011.50 1011.26 1010.91
Wind_Speed
3 0 8 9 6 2 6 3 2 3 3 5 7 8 13 7 6 7 6 10 11 12 10 7 9 9 8 7 9 8 8 7 4 2 2 1 2 3 3 4 6 4 4 3
5 7 8 4 6 3 4 5 5 1 3 7 1 12 8 7 6 7 8 8 13 7 8 8 9 10 10 10 10 8 9 7 5 3 2 2 1 3 3 2 3 4 4 3
7 11 5 6 5 6 4 6 7 5 7 4 1 7 9 6 6 4 6 5 11 16 12 10 10 11 10 10 10 10 10 8 6 6 2 2 1 1 2 2 1 3 4 4
6 6 7 4 5 6 3 16 11 6 3 2 2 6 6 6 6 7 10 8 9 13 12 12 12 11 12 12 9 8 8 9 7 8 4 5 4 3 3 2 1 2 2 5
8 2 4 4 8 9 13 13 13 11 4 2 3 2 6 3 6 10 10 13 10 15 16 16 15 15 14 11 11 9 8 7 7 7 6 5 5 4 2 1 3 4 3 6
8 3 8 11 3 18 1 5 6 6 3 3 4 6 6 6 8 6 9 10 11 12 14 13 12 10 10 9 10 10 10 10 7 7 7 8 8 6 3 3 4 4 3 3
3 6 4 5 5 2 4 7 2 4 2 8 5 4 12 6 6 7 13 12 10 11 11 12 13 11 8 12 12 11 11 12 9 9 8 8 8 7 7 5 4 4 3 2
4 8 9 7 12 11 8 10 7 6 5 3 3 6 8 2 3 3 7 9 8 11 9 13 14 13 12 13 13 14 13 13 10 10 10 7 8 5 4 5 4 4 4 4
6 7 5 6 4 11 6 5 4 7 3 3 4 7 9 5 6 6 7 6 11 12 13 13 14 14 14 12 14 14 13 12 9 11 8 8 8 8 7 7 4 3 4 4
5 3 3 3 6 3 9 7 3 3 3 4 3 5 6 4 3 2 6 5 6 7 9 9 9 12 12 12 10 9 11 13 13 12 9 9 10 8 7 6 6 6 6 5
5 5 10 4 4 10 2 1 6 6 5 6 2 8 7 8 6 8 6 7 8 8 9 11 12 10 13 10 10 11 10 11 11 11 11 10 9 9 7 7 6 7 6 6
11 6 6 12 4 5 7 6 6 7 4 1 4 8 3 6 8 7 8 8 6 9 12 12 12 11 10 11 10 12 11 10 11 10 7 9 9 8 9 9 8 7 7 6
7 3 2 8 8 3 3 4 6 5 4 6 6 7 4 1 5 9 9 8 6 8 8 8 7 8 9 8 8 10 11 14 10 8 9 8 9 7 11 10 8 7 7 7
9 5 8 9 9 5 3 4 4 6 5 4 7 4 5 5 6 7 8 9 10 9 10 7 6 8 8 9 10 10 10 8 7 7 10 11 10 11 13 10 8 9 9 8
4 5 4 5 7 5 4 4 8 5 5 7 6 10 10 13 13 13 13 11 8 7 6 7 6 7 7 7 7 6 7 7 9 9 9 11 9 9 9 8 9 8 8 9
6 2 4 3 4 3 4 5 2 1 3 6 3 7 5 3 4 4 7 8 7 7 7 7 7 7 6 6 7 6 7 8 7 8 12 10 7 7 8 8 4 3 1 3
3 3 4 5 2 2 3 7 6 5 5 9 6 12 7 5 8 9 8 8 10 9 8 8 8 6 4 4 3 5 5 5 7 8 8 7 6 8 8 6 9 6 3 3
3 3 3 3 2 5 9 2 6 8 5 7 3 7 10 9 11 6 4 10 9 7 8 7 7 7 5 5 6 5 4 3 3 3 3 3 5 6 6 8 10 10 12 18
2 5 2 2 3 6 3 4 7 8 9 6 9 6 3 5 5 1 2 4 4 6 3 5 5 4 5 5 5 7 6 5 4 3 1 2 1 4 5 8 11 9 9 10
5 4 5 3 4 8 9 6 7 2 4 3 3 8 9 6 5 7 3 6 7 7 6 8 6 4 5 4 5 6 5 4 2 3 4 4 3 4 5 7 9 9 12 13
3 2 3 4 5 7 6 7 4 5 10 6 6 5 8 7 6 3 6 4 5 5 7 6 6 5 4 3 5 6 4 2 2 4 4 4 5 3 5 5 4 8 10 10
5 4 4 2 2 6 4 1 6 6 7 3 4 5 4 4 5 6 6 7 7 8 6 5 6 5 4 4 5 5 3 2 3 3 4 4 4 2 3 3 0 4 7 10
1 6 4 7 6 5 5 1 3 5 4 3 7 5 9 9 6 7 7 8 6 6 5 5 6 6 4 4 5 5 1 3 2 3 4 4 5 4 3 2 3 2 3 4
4 3 2 4 4 3 4 6 7 4 3 3 3 11 8 8 7 6 6 5 5 5 5 5 7 7 6 5 4 4 4 4 3 3 4 5 5 5 6 4 3 2 3 3
5 3 0 5 8 5 5 6 6 7 13 8 5 5 7 10 5 4 5 5 6 6 6 5 3 4 6 5 6 5 5 5 4 4 3 6 5 5 5 6 4 3 3 1
5 6 3 6 6 3 7 3 9 2 7 8 6 6 4 7 7 5 5 4 5 6 5 5 5 1 1 3 4 5 4 4 5 4 2 4 5 4 3 4 6 15 11 14
Wind_Direction
347 129 218 199 198 255 143 158 86 239 211 179 219 246 257 242 239 196 188 179 183 195 192 179 182 173 165 169 170 179 171 198 150 141 164 203 235 264 278 254 273 237 206 197
12 254 240 170 188 115 140 154 230 286 220 172 189 260 253 232 234 210 204 177 190 161 182 175 172 178 183 181 179 178 192 182 180 161 163 159 153 254 257 285 261 195 195 203
173 237 116 164 170 166 170 204 199 192 146 127 41 282 227 230 206 178 238 208 186 178 182 183 179 187 182 190 187 188 192 191 183 175 136 100 97 327 287 280 302 222 214 227
221 276 225 154 203 143 228 204 199 128 88 270 139 271 278 195 213 202 190 210 177 181 183 188 183 186 189 197 187 190 195 190 193 167 163 165 179 213 242 228 283 249 280 237
237 251 155 179 208 161 234 164 200 173 123 48 208 319 270 113 219 237 206 190 201 183 180 190 190 194 195 187 185 190 193 198 192 169 180 183 198 212 215 239 257 248 273 264
242 247 159 212 156 191 41 108 56 59 80 309 203 166 269 188 208 225 214 195 193 186 192 194 192 190 189 182 188 188 190 212 188 184 186 195 209 228 207 213 234 248 236 258
309 233 231 161 157 237 94 66 15 9 24 225 3 131 249 249 216 212 192 194 189 193 182 180 180 188 176 186 187 193 193 214 212 189 194 206 217 219 211 216 207 216 205 220
176 318 183 189 190 179 180 154 161 199 203 260 345 230 258 266 267 176 153 182 171 190 186 192 189 190 189 190 193 188 198 209 197 200 205 206 219 224 223 213 194 200 206 215
154 263 288 196 160 131 183 187 193 112 19 97 238 291 306 334 126 136 139 153 191 197 201 192 192 193 193 194 197 195 195 207 208 212 203 205 209 205 215 216 206 218 212 230
208 321 260 345 105 47 146 166 87 11 149 240 270 289 240 279 193 250 151 180 197 206 216 211 188 196 197 200 191 186 201 199 206 200 198 212 218 215 209 203 205 206 221 222
146 126 279 45 186 184 82 222 55 121 124 161 179 263 216 210 214 224 243 169 205 214 208 202 206 192 198 194 191 195 196 201 202 204 205 202 205 206 198 212 212 204 209 222
206 153 220 229 283 182 151 177 134 124 227 177 158 271 253 211 204 176 244 258 195 206 205 198 194 189 183 196 186 194 203 211 210 201 199 204 212 196 201 212 207 194 209 207
178 227 86 345 356 11 175 191 120 111 80 190 144 255 298 1 179 192 200 223 224 191 187 195 184 177 185 190 192 200 204 214 212 187 197 205 210 208 217 216 205 191 200 206
112 128 167 188 203 164 174 166 168 124 125 180 222 218 273 271 241 197 178 181 203 202 194 187 191 187 189 196 195 200 205 198 197 187 204 215 208 213 232 216 199 197 193 201
89 161 165 245 172 172 175 204 168 169 205 153 226 192 210 208 202 199 190 185 170 183 163 182 195 210 204 195 199 193 212 191 194 203 207 218 209 207 221 216 200 193 191 210
343 178 127 246 304 194 163 222 226 246 186 283 170 238 214 145 129 193 208 146 163 177 180 185 196 202 213 205 205 198 210 200 166 201 216 212 198 205 203 205 214 161 198 270
11 99 85 230 265 85 6 224 213 210 203 154 159 224 151 187 196 200 189 179 181 193 191 195 184 166 148 154 150 214 222 190 187 199 221 225 202 214 215 196 159 135 64 321
147 84 94 235 79 210 234 236 217 212 237 187 175 198 195 194 194 171 216 192 194 188 189 184 161 146 146 129 121 101 76 74 147 176 213 202 211 220 200 188 177 161 172 219
187 116 108 163 196 279 299 233 188 178 246 205 178 182 139 107 86 263 229 194 220 191 152 112 104 103 112 107 100 106 97 91 87 61 43 130 226 256 202 206 190 191 186 208
83 69 130 128 173 217 227 335 5 87 261 220 207 168 152 120 148 239 166 151 128 112 108 113 101 88 86 66 81 77 68 71 45 351 315 311 216 228 250 220 211 184 189 198
29 25 179 169 211 276 244 273 278 118 236 164 156 166 151 174 199 172 122 88 99 109 114 101 103 111 114 104 103 98 100 72 295 295 303 290 273 222 257 256 210 204 198 202
161 148 206 138 185 259 206 213 160 219 298 225 143 149 121 105 104 113 113 119 117 127 122 116 115 112 117 120 108 100 81 356 356 340 319 311 319 328 283 243 220 202 194 198
193 181 212 175 220 261 313 324 228 201 212 228 135 139 143 140 161 150 148 148 141 139 118 98 111 112 106 105 114 119 16 44 30 31 29 15 11 357 356 66 84 80 99 138
315 154 193 2 229 227 302 281 270 118 102 354 125 137 146 143 138 137 146 122 123 128 143 150 147 148 154 147 132 137 102 79 48 59 51 43 39 16 15 27 28 82 91 108
227 345 49 277 288 306 270 267 271 73 86 69 78 124 143 135 139 141 131 142 158 161 166 156 173 168 160 157 146 150 137 118 80 21 69 69 54 47 52 48 8 43 25 81
194 210 170 234 232 220 255 269 302 111 118 134 137 118 99 109 135 129 138 160 153 144 140 133 124 93 254 180 159 152 149 139 111 82 6 78 75 36 44 60 73 49 53 51